Weather History for Larissa, Greece

Change the Weather History Date:

Wednesday, August 21, 2013

  Actual Average Record
Temperature  
Mean Temperature 76 °F -  
Max Temperature 88 °F - - ()
Min Temperature 64 °F - - ()
Cooling Degree Days 11    
Growing Degree Days 26 (Base 50)    
Moisture  
Dew Point 52 °F    
Average Humidity 40    
Maximum Humidity 68    
Minimum Humidity 16    
Precipitation  
Precipitation 0.00 in - - ()
Sea Level Pressure  
Sea Level Pressure 29.95 in    
Wind  
Wind Speed 4 mph ()    
Max Wind Speed 18 mph    
Max Gust Speed -    
Visibility 6.2 miles    
Events      
T = Trace of Precipitation, MM = Missing Value Source: Averaged Metar Reports

Daily Weather History Graph

Daily Weather History Graph

Search for Another Location

Airport:

Trip Planner

Search our weather history database for the weather conditions in past years. The results will help you decide how hot, cold, wet, or windy it might be!

Date:

Astronomy

Aug. 21, 2013 Rise Set
Actual Time 6:48 AM EEST 8:18 PM EEST
Civil Twilight 6:19 AM EEST 8:46 PM EEST
Nautical Twilight 5:45 AM EEST 9:20 PM EEST
Astronomical Twilight 5:09 AM EEST 9:56 PM EEST
Moon 8:15 PM EEST (8/21) 7:06 AM EEST (8/21)
Length of Visible Light 14h 26m
Length of Day
13h 29m
Full, 100% of the Moon is Illuminated
Aug 21
Full
Aug 28
Last Quarter
Sep 5
New
Sep 12
First Quarter
Sep 19
Full

Hourly Weather History & Observations

Time (EEST) Temp. Heat Index Dew Point Humidity Pressure Visibility Wind Dir Wind Speed Gust Speed Precip Events Conditions
12:50 AM 71.6 °F - 50.0 °F 46% 29.92 in 6.2 mi Calm Calm - N/A   Scattered Clouds
1:50 AM 66.2 °F - 51.8 °F 60% 29.95 in 6.2 mi Calm Calm - N/A   Scattered Clouds
3:00 AM 65 °F - 49 °F 45% 29.94 in 6 mi Calm Calm - -   Scattered Clouds
3:50 AM 64.4 °F - 48.2 °F 56% 29.92 in 6.2 mi Calm Calm - N/A   Partly Cloudy
4:50 AM 64.4 °F - 50.0 °F 59% 29.92 in 6.2 mi Calm Calm - N/A   Partly Cloudy
5:50 AM 68.0 °F - 53.6 °F 60% 29.95 in 6.2 mi Calm Calm - N/A   Partly Cloudy
6:50 AM 66.2 °F - 55.4 °F 68% 29.95 in 6.2 mi Calm Calm - N/A   Partly Cloudy
7:50 AM 68.0 °F - 53.6 °F 60% 29.95 in 6.2 mi Calm Calm - N/A   Scattered Clouds
8:50 AM 78.8 °F - 57.2 °F 47% 29.95 in 6.2 mi Calm Calm - N/A   Partly Cloudy
9:00 AM 79 °F - 58 °F 38% 29.96 in 6 mi Calm Calm - -   Scattered Clouds
9:50 AM 82.4 °F 82.0 °F 57.2 °F 42% 29.98 in 6.2 mi NE 4.6 mph - N/A   Partly Cloudy
10:50 AM 86.0 °F - 51.8 °F 31% 29.98 in 6.2 mi ENE 9.2 mph - N/A   Partly Cloudy
11:50 AM 86.0 °F - 51.8 °F 31% 29.98 in 6.2 mi East 13.8 mph - N/A   Partly Cloudy
12:50 PM 86.0 °F - 51.8 °F 31% 29.98 in 6.2 mi ENE 13.8 mph - N/A   Scattered Clouds
1:50 PM 87.8 °F - 50.0 °F 27% 29.95 in 6.2 mi East 16.1 mph - N/A   Scattered Clouds
2:50 PM 87.8 °F - 48.2 °F 25% 29.95 in 6.2 mi East 16.1 mph - N/A   Scattered Clouds
3:00 PM 88 °F - 49 °F 16% 29.95 in 6 mi East 16.1 mph - -   Scattered Clouds
3:50 PM 87.8 °F - 48.2 °F 25% 29.95 in 6.2 mi East 16.1 mph - N/A   Scattered Clouds
4:50 PM 86.0 °F - 48.2 °F 27% 29.95 in 6.2 mi East 18.4 mph - N/A   Scattered Clouds
5:50 PM 86.0 °F - 48.2 °F 27% 29.92 in 6.2 mi East 13.8 mph - N/A   Scattered Clouds
6:50 PM 84.2 °F - 50.0 °F 30% 29.92 in 6.2 mi East 12.7 mph - N/A   Scattered Clouds
7:50 PM 80.6 °F - 51.8 °F 37% 29.92 in 6.2 mi ENE 5.8 mph - N/A   Mostly Cloudy
8:50 PM 78.8 °F - 50.0 °F 36% 29.95 in 6.2 mi East 5.8 mph - N/A   Mostly Cloudy
9:00 PM 79 °F - 51 °F 26% 29.94 in 6 mi East 5.8 mph - -   Scattered Clouds
9:50 PM 77.0 °F - 51.8 °F 41% 29.95 in 6.2 mi Calm Calm - N/A   Mostly Cloudy
10:50 PM 75.2 °F - 53.6 °F 47% 29.95 in 6.2 mi Calm Calm - N/A   Mostly Cloudy
11:50 PM 73.4 °F - 53.6 °F 50% 29.95 in 6.2 mi WSW 5.8 mph - N/A   Mostly Cloudy